Flag for Vietnam Weather past 2 weeks in Da Nang, Vietnam

Now
70 °F

Partly cloudy.


Feels Like: 70 °F
Forecast: 75 / 79 °F
Wind: 5 mph from North

Location: Da Nang Airport

Current Time: Dec 27, 2014 at 6:36:15 AM

Latest Report: Dec 27, 2014 at 6:00 AM


Visibility: 4 mi

Pressure: 29.98 "Hg

Humidity: 94%

Dew point: 68 °F

Location of Da NangLocation

Historic Weather in Da Nang — Graph

°F

Da Nang temperature yesterday

Maximum temperature yesterday: 73 °F (at 10:30 AM)
Minimum temperature yesterday: 68 °F (at 12:00 AM)
Average temperature yesterday: 70 °F

Past Weeks' High & Low Weather Summary

 TemperatureHumidityPressure
High79 °F (Dec 15, 11:30 AM)94% (Dec 12, 5:00 AM)30.27 "Hg (Dec 12, 5:00 AM)
Low61 °F (Dec 18, 5:00 AM)57% (Dec 20, 11:30 AM)29.95 "Hg (Dec 25, 2:00 PM)
Average69 °F85%30.09 "Hg
* Reported Dec 12 5:00 AM — Dec 27 5:30 AM, Da Nang, Weather by CustomWeather, © 2014

Note: Actual official high and low records may vary slightly from our data, if they occured in-between our weather recording intervals... More about our weather records

Advertising

Da Nang weather history for previous 24 hours

 ConditionsComfort  
Time TempWeatherWind HumidityBarometerVisibility
5:30 AM
Dec 27
70 °FPartly cloudy.5 mph94%29.98 "Hg4 mi
5:00 AM70 °FPartly cloudy.3 mph94%29.98 "Hg4 mi
4:30 AM70 °FPartly cloudy.5 mph94%29.95 "Hg4 mi
4:00 AM70 °FPartly cloudy.6 mph94%29.95 "Hg4 mi
3:30 AM70 °FPartly cloudy.6 mph94%29.95 "Hg4 mi
3:00 AM70 °FPartly cloudy.7 mph94%29.95 "Hg4 mi
2:30 AM70 °FPartly cloudy.5 mph94%29.95 "Hg4 mi
2:00 AM70 °FPartly cloudy.5 mph94%29.95 "Hg4 mi
1:30 AM70 °FPartly cloudy.3 mph94%29.95 "Hg4 mi
1:00 AM70 °FPartly cloudy.3 mph94%29.95 "Hg4 mi
12:30 AM70 °FPartly cloudy.3 mph94%29.95 "Hg4 mi
12:00 AM70 °FPartly cloudy.3 mph94%29.95 "Hg4 mi
11:30 PM
Dec 26
70 °FPartly cloudy.3 mph94%29.98 "Hg4 mi
11:00 PM70 °FPartly cloudy.5 mph94%29.98 "Hg4 mi
10:30 PM70 °FPartly cloudy.3 mph94%29.98 "Hg4 mi
10:00 PM70 °FPartly cloudy.3 mph94%29.98 "Hg4 mi
9:30 PM70 °FPartly cloudy.6 mph94%29.98 "Hg4 mi
9:00 PM70 °FLight rain. Partly cloudy.7 mph94%29.98 "Hg4 mi
8:30 PM70 °FPartly cloudy.6 mph94%29.98 "Hg4 mi
8:00 PM70 °FPartly cloudy.5 mph94%29.98 "Hg4 mi
7:30 PM70 °FPartly cloudy.5 mph94%29.98 "Hg4 mi
7:00 PM70 °FPartly cloudy.5 mph94%29.98 "Hg4 mi
6:30 PM70 °FPartly cloudy.7 mph94%29.95 "Hg4 mi
6:00 PM70 °FPartly cloudy.6 mph94%29.95 "Hg4 mi
5:30 PM72 °FPartly cloudy.5 mph88%29.95 "Hg4 mi
5:00 PM72 °FBroken clouds.5 mph88%29.95 "Hg4 mi
4:30 PM72 °FBroken clouds.6 mph88%29.95 "Hg4 mi
4:00 PM73 °FBroken clouds.6 mph83%29.95 "Hg4 mi
3:30 PM73 °FBroken clouds.5 mph89%29.95 "Hg4 mi
3:00 PM72 °FLight rain. Broken clouds.3 mph88%29.95 "Hg3 mi
2:30 PM72 °FLight rain. Broken clouds.3 mph88%29.95 "Hg3 mi
2:00 PM72 °FBroken clouds.5 mph88%29.95 "Hg4 mi
1:30 PM72 °FBroken clouds.5 mph88%29.95 "Hg4 mi
1:00 PM73 °FLight rain. Broken clouds.3 mph83%29.98 "Hg3 mi
12:30 PM72 °FLight rain. Broken clouds.1 mph88%29.98 "Hg3 mi
12:00 PM73 °FLight rain. Broken clouds.2 mph83%30.01 "Hg3 mi
11:30 AM73 °FBroken clouds.6 mph83%30.01 "Hg5 mi
11:00 AM73 °FBroken clouds.1 mph83%30.01 "Hg5 mi
10:30 AM73 °FBroken clouds.1 mph83%30.04 "Hg5 mi
9:30 AM72 °FBroken clouds.1 mph88%30.04 "Hg4 mi
9:00 AM72 °FBroken clouds.No wind88%30.04 "Hg4 mi
8:30 AM70 °FBroken clouds.1 mph94%30.04 "Hg4 mi
8:00 AM70 °FBroken clouds.1 mph94%30.04 "Hg4 mi
7:30 AM68 °FBroken clouds.1 mph94%30.01 "Hg4 mi
7:00 AM68 °FBroken clouds.5 mph94%30.01 "Hg4 mi
6:30 AM68 °FLight rain. Fog.2 mph94%30.01 "Hg2 mi
6:00 AM68 °FLight rain. Fog.2 mph94%29.98 "Hg3 mi
Weather by CustomWeather, © 2014

See weather overviewHow to use our weather pages